Location: Waco, TX
(31.5480°N, 97.1670°W)
Time: 22:55:25
(UTC-05:00)

ISS - Pass Details

Date: 20 April 2018
Orbit: 403 x 406 km, 51.6° (Epoch: 23 April)

Event Time Altitude Azimuth Distance (km) Brightness Sun altitude
Rises 18:52:21 0° 294° (WNW) 2,321 1.5 13.5°
Reaches altitude 10° 18:55:08 10° 268° (W) 1,458 1.6 13.0°
Maximum altitude 18:56:57 14° 234° (SW) 1,232 -0.5 12.6°
Drops below altitude 10° 18:58:46 10° 200° (SSW) 1,454 -0.8 12.2°
Sets 19:01:33 0° 174° (S) 2,308 -0.1 11.6°
